Time,TemperatureF,DewpointF,PressureIn,WindDirection,WindDirectionDegrees,WindSpeedMPH,WindSpeedGustMPH,Humidity,HourlyPrecipIn,Conditions,Clouds,dailyrainin,SoftwareType,DateUTC
2013-09-17 00:01:00,49.2,43.0,29.48,WSW,250,2.0,12.0,78,0.00,,,0.06,weatherlink.com 1.10,2013-09-16 23:01:00,
2013-09-17 00:16:00,49.1,43.0,29.48,NNW,332,4.0,11.0,78,0.00,,,0.00,weatherlink.com 1.10,2013-09-16 23:16:00,
2013-09-17 00:31:00,49.1,43.0,29.47,West,266,5.0,19.0,79,0.00,,,0.00,weatherlink.com 1.10,2013-09-16 23:31:00,
2013-09-17 00:46:00,49.3,43.0,29.46,SW,231,2.0,14.0,79,0.00,,,0.00,weatherlink.com 1.10,2013-09-16 23:46:00,
2013-09-17 01:02:00,49.3,43.0,29.47,West,274,3.0,11.0,79,0.00,,,0.00,weatherlink.com 1.10,2013-09-17 00:02:00,
2013-09-17 01:17:00,49.2,43.0,29.47,West,270,2.0,13.0,78,0.00,,,0.00,weatherlink.com 1.10,2013-09-17 00:17:00,
2013-09-17 01:32:00,49.1,42.0,29.46,NNE,27,8.0,14.0,77,0.00,,,0.00,weatherlink.com 1.10,2013-09-17 00:32:00,
2013-09-17 01:47:00,49.2,42.0,29.46,SW,233,4.0,15.0,77,0.00,,,0.00,weatherlink.com 1.10,2013-09-17 00:47:00,
2013-09-17 02:02:00,48.9,42.0,29.46,West,281,8.0,17.0,77,0.00,,,0.00,weatherlink.com 1.10,2013-09-17 01:02:00,
2013-09-17 02:17:00,49.1,42.0,29.46,WSW,258,2.0,12.0,77,0.00,,,0.00,weatherlink.com 1.10,2013-09-17 01:17:00,
2013-09-17 02:32:00,49.4,42.0,29.45,West,270,8.0,13.0,77,0.00,,,0.00,weatherlink.com 1.10,2013-09-17 01:32:00,
2013-09-17 02:47:00,49.7,42.0,29.45,West,274,7.0,19.0,76,0.00,,,0.00,weatherlink.com 1.10,2013-09-17 01:47:00,
2013-09-17 03:02:00,49.9,43.0,29.45,WSW,249,1.0,14.0,76,0.00,,,0.00,weatherlink.com 1.10,2013-09-17 02:02:00,
2013-09-17 03:17:00,49.8,42.0,29.44,West,274,2.0,9.0,75,0.00,,,0.00,weatherlink.com 1.10,2013-09-17 02:17:00,
2013-09-17 03:32:00,49.9,42.0,29.44,WSW,257,4.0,13.0,75,0.00,,,0.00,weatherlink.com 1.10,2013-09-17 02:32:00,
2013-09-17 03:47:00,50.0,42.0,29.44,West,273,6.0,13.0,75,0.00,,,0.00,weatherlink.com 1.10,2013-09-17 02:47:00,
2013-09-17 04:02:00,50.0,42.0,29.43,WSW,250,5.0,12.0,75,0.00,,,0.00,weatherlink.com 1.10,2013-09-17 03:02:00,
2013-09-17 04:17:00,50.0,43.0,29.43,SW,224,2.0,11.0,76,0.00,,,0.00,weatherlink.com 1.10,2013-09-17 03:17:00,
2013-09-17 04:32:00,49.9,43.0,29.43,WNW,285,4.0,12.0,77,0.00,,,0.00,weatherlink.com 1.10,2013-09-17 03:32:00,
2013-09-17 04:47:00,50.1,43.0,29.42,WNW,297,8.0,13.0,77,0.00,,,0.00,weatherlink.com 1.10,2013-09-17 03:47:00,
2013-09-17 05:02:00,49.9,43.0,29.42,WSW,249,6.0,13.0,77,0.00,,,0.00,weatherlink.com 1.10,2013-09-17 04:02:00,
2013-09-17 05:17:00,49.8,43.0,29.41,WSW,238,3.0,12.0,76,0.00,,,0.00,weatherlink.com 1.10,2013-09-17 04:17:00,
2013-09-17 05:32:00,50.0,42.0,29.41,West,273,5.0,13.0,74,0.00,,,0.00,weatherlink.com 1.10,2013-09-17 04:32:00,
2013-09-17 05:47:00,50.0,42.0,29.41,WNW,283,10.0,13.0,74,0.00,,,0.00,weatherlink.com 1.10,2013-09-17 04:47:00,
2013-09-17 06:02:00,49.9,42.0,29.40,West,259,1.0,13.0,73,0.00,,,0.00,weatherlink.com 1.10,2013-09-17 05:02:00,
2013-09-17 06:17:00,50.0,41.0,29.39,West,263,4.0,9.0,72,0.00,,,0.00,weatherlink.com 1.10,2013-09-17 05:17:00,
2013-09-17 06:32:00,50.1,41.0,29.39,WSW,255,6.0,10.0,72,0.00,,,0.00,weatherlink.com 1.10,2013-09-17 05:32:00,
2013-09-17 06:47:00,50.1,42.0,29.39,West,266,0.0,10.0,73,0.00,,,0.00,weatherlink.com 1.10,2013-09-17 05:47:00,
2013-09-17 07:02:00,50.3,42.0,29.38,WSW,256,4.0,10.0,74,0.00,,,0.00,weatherlink.com 1.10,2013-09-17 06:02:00,
2013-09-17 07:18:00,50.3,43.0,29.38,West,270,3.0,9.0,75,0.00,,,0.00,weatherlink.com 1.10,2013-09-17 06:18:00,
2013-09-17 07:32:00,50.3,43.0,29.38,West,271,4.0,8.0,77,0.00,,,0.00,weatherlink.com 1.10,2013-09-17 06:32:00,
2013-09-17 07:47:00,50.4,44.0,29.38,WSW,256,3.0,7.0,78,0.00,,,0.00,weatherlink.com 1.10,2013-09-17 06:47:00,
2013-09-17 08:02:00,50.5,44.0,29.37,West,278,0.0,7.0,79,0.00,,,0.00,weatherlink.com 1.10,2013-09-17 07:02:00,
2013-09-17 08:17:00,50.3,45.0,29.36,West,262,3.0,7.0,81,0.00,,,0.00,weatherlink.com 1.10,2013-09-17 07:17:00,
2013-09-17 08:32:00,50.4,45.0,29.38,SSW,193,3.0,8.0,82,0.00,,,0.00,weatherlink.com 1.10,2013-09-17 07:32:00,
2013-09-17 08:47:00,50.3,46.0,29.35,WSW,246,2.0,7.0,84,0.00,,,0.00,weatherlink.com 1.10,2013-09-17 07:47:00,
2013-09-17 09:02:00,50.0,46.0,29.35,WSW,257,2.0,6.0,86,0.00,,,0.00,weatherlink.com 1.10,2013-09-17 08:02:00,
2013-09-17 09:17:00,49.8,46.0,29.34,WSW,257,3.0,5.0,87,0.02,,,0.02,weatherlink.com 1.10,2013-09-17 08:17:00,
2013-09-17 09:33:00,49.5,46.0,29.35,North,360,2.0,7.0,89,0.02,,,0.02,weatherlink.com 1.10,2013-09-17 08:33:00,
2013-09-17 09:48:00,49.5,47.0,29.35,WSW,245,0.0,3.0,90,0.05,,,0.05,weatherlink.com 1.10,2013-09-17 08:48:00,
2013-09-17 10:03:00,49.5,47.0,29.35,NW,307,0.0,3.0,90,0.09,,,0.09,weatherlink.com 1.10,2013-09-17 09:03:00,
2013-09-17 10:18:00,49.3,47.0,29.33,SW,222,0.0,1.0,91,0.10,,,0.12,weatherlink.com 1.10,2013-09-17 09:18:00,
2013-09-17 10:33:00,49.3,47.0,29.33,WSW,246,0.0,0.0,92,0.13,,,0.16,weatherlink.com 1.10,2013-09-17 09:33:00,
2013-09-17 10:48:00,49.7,48.0,29.30,SE,138,1.0,1.0,92,0.13,,,0.19,weatherlink.com 1.10,2013-09-17 09:48:00,
2013-09-17 11:03:00,49.8,48.0,29.29,SE,146,0.0,2.0,92,0.11,,,0.20,weatherlink.com 1.10,2013-09-17 10:03:00,
2013-09-17 11:18:00,50.0,48.0,29.27,East,101,1.0,2.0,92,0.09,,,0.21,weatherlink.com 1.10,2013-09-17 10:18:00,
2013-09-17 11:33:00,50.9,49.0,29.26,ESE,113,6.0,6.0,93,0.07,,,0.23,weatherlink.com 1.10,2013-09-17 10:33:00,
2013-09-17 11:48:00,50.8,49.0,29.26,East,98,6.0,6.0,92,0.04,,,0.23,weatherlink.com 1.10,2013-09-17 10:48:00,
2013-09-17 12:03:00,50.8,49.0,29.25,East,93,1.0,8.0,92,0.04,,,0.24,weatherlink.com 1.10,2013-09-17 11:03:00,
2013-09-17 12:18:00,50.4,49.0,29.24,East,98,2.0,8.0,93,0.03,,,0.25,weatherlink.com 1.10,2013-09-17 11:18:00,
2013-09-17 12:33:00,50.6,49.0,29.24,ENE,78,4.0,5.0,93,0.04,,,0.27,weatherlink.com 1.10,2013-09-17 11:33:00,
2013-09-17 12:48:00,51.2,50.0,29.23,East,89,1.0,5.0,94,0.05,,,0.28,weatherlink.com 1.10,2013-09-17 11:48:00,
2013-09-17 13:03:00,51.6,50.0,29.22,ESE,103,3.0,5.0,94,0.04,,,0.28,weatherlink.com 1.10,2013-09-17 12:03:00,
2013-09-17 13:18:00,52.2,51.0,29.21,East,91,3.0,5.0,94,0.02,,,0.28,weatherlink.com 1.10,2013-09-17 12:18:00,
2013-09-17 13:33:00,52.3,51.0,29.21,NNE,23,5.0,6.0,94,0.02,,,0.28,weatherlink.com 1.10,2013-09-17 12:33:00,
2013-09-17 13:48:00,51.2,50.0,29.21,NNE,27,3.0,7.0,94,0.01,,,0.28,weatherlink.com 1.10,2013-09-17 12:48:00,
2013-09-17 14:03:00,50.8,49.0,29.21,NNE,23,2.0,5.0,94,0.01,,,0.28,weatherlink.com 1.10,2013-09-17 13:03:00,
2013-09-17 14:18:00,50.7,49.0,29.21,NE,44,2.0,6.0,94,0.00,,,0.28,weatherlink.com 1.10,2013-09-17 13:18:00,
2013-09-17 14:33:00,51.1,50.0,29.21,NE,34,3.0,4.0,95,0.00,,,0.28,weatherlink.com 1.10,2013-09-17 13:33:00,
2013-09-17 14:48:00,51.2,50.0,29.21,NNE,12,2.0,5.0,95,0.00,,,0.28,weatherlink.com 1.10,2013-09-17 13:48:00,
2013-09-17 15:03:00,51.3,50.0,29.21,NE,51,2.0,3.0,95,0.00,,,0.28,weatherlink.com 1.10,2013-09-17 14:03:00,
2013-09-17 15:18:00,51.1,50.0,29.21,ENE,62,2.0,4.0,95,0.00,,,0.28,weatherlink.com 1.10,2013-09-17 14:18:00,
2013-09-17 15:33:00,51.2,50.0,29.21,East,101,0.0,3.0,95,0.01,,,0.29,weatherlink.com 1.10,2013-09-17 14:33:00,
2013-09-17 15:48:00,51.2,50.0,29.21,East,95,1.0,4.0,95,0.01,,,0.29,weatherlink.com 1.10,2013-09-17 14:48:00,
2013-09-17 16:03:00,51.4,50.0,29.21,NE,36,1.0,2.0,95,0.01,,,0.29,weatherlink.com 1.10,2013-09-17 15:03:00,
2013-09-17 16:18:00,51.1,50.0,29.21,NE,40,3.0,3.0,95,0.01,,,0.29,weatherlink.com 1.10,2013-09-17 15:18:00,
2013-09-17 16:33:00,51.1,50.0,29.21,SE,127,1.0,2.0,95,0.02,,,0.31,weatherlink.com 1.10,2013-09-17 15:33:00,
2013-09-17 16:48:00,51.1,50.0,29.21,ESE,111,1.0,3.0,95,0.03,,,0.32,weatherlink.com 1.10,2013-09-17 15:48:00,
2013-09-17 17:03:00,51.0,50.0,29.21,ESE,111,2.0,3.0,95,0.06,,,0.35,weatherlink.com 1.10,2013-09-17 16:03:00,
2013-09-17 17:18:00,50.8,50.0,29.21,East,92,1.0,3.0,95,0.07,,,0.36,weatherlink.com 1.10,2013-09-17 16:18:00,
2013-09-17 17:33:00,50.7,49.0,29.22,East,93,0.0,2.0,95,0.06,,,0.37,weatherlink.com 1.10,2013-09-17 16:33:00,
2013-09-17 17:48:00,50.6,49.0,29.22,ESE,104,0.0,2.0,95,0.06,,,0.38,weatherlink.com 1.10,2013-09-17 16:48:00,
2013-09-17 18:03:00,50.7,49.0,29.23,ESE,108,1.0,1.0,95,0.05,,,0.39,weatherlink.com 1.10,2013-09-17 17:03:00,
2013-09-17 18:18:00,50.8,50.0,29.23,SE,130,1.0,2.0,96,0.06,,,0.42,weatherlink.com 1.10,2013-09-17 17:18:00,
2013-09-17 18:33:00,50.6,50.0,29.24,ESE,110,1.0,2.0,96,0.07,,,0.44,weatherlink.com 1.10,2013-09-17 17:33:00,
2013-09-17 18:48:00,50.7,50.0,29.24,East,84,0.0,1.0,96,0.08,,,0.46,weatherlink.com 1.10,2013-09-17 17:48:00,
2013-09-17 19:03:00,50.6,50.0,29.25,East,89,1.0,3.0,96,0.09,,,0.48,weatherlink.com 1.10,2013-09-17 18:03:00,
2013-09-17 19:18:00,50.6,50.0,29.25,ESE,122,0.0,0.0,96,0.09,,,0.50,weatherlink.com 1.10,2013-09-17 18:18:00,
2013-09-17 19:33:00,50.7,50.0,29.26,ESE,122,0.0,0.0,96,0.09,,,0.53,weatherlink.com 1.10,2013-09-17 18:33:00,
2013-09-17 20:03:00,50.8,50.0,29.27,South,188,0.0,0.0,96,0.08,,,0.56,weatherlink.com 1.10,2013-09-17 19:03:00,
2013-09-17 20:19:00,50.8,50.0,29.27,WSW,252,0.0,1.0,96,0.06,,,0.57,weatherlink.com 1.10,2013-09-17 19:19:00,
2013-09-17 20:34:00,50.9,50.0,29.27,WSW,253,0.0,1.0,96,0.03,,,0.57,weatherlink.com 1.10,2013-09-17 19:34:00,
2013-09-17 20:49:00,50.8,50.0,29.28,WSW,250,0.0,1.0,96,0.02,,,0.57,weatherlink.com 1.10,2013-09-17 19:49:00,
2013-09-17 21:04:00,50.9,50.0,29.29,WNW,284,0.0,2.0,96,0.02,,,0.57,weatherlink.com 1.10,2013-09-17 20:04:00,
2013-09-17 21:19:00,50.8,50.0,29.29,West,273,1.0,2.0,96,0.01,,,0.57,weatherlink.com 1.10,2013-09-17 20:19:00,
2013-09-17 21:34:00,50.8,50.0,29.29,WSW,256,1.0,2.0,96,0.02,,,0.58,weatherlink.com 1.10,2013-09-17 20:34:00,
2013-09-17 21:49:00,50.7,50.0,29.30,WSW,255,0.0,2.0,96,0.02,,,0.58,weatherlink.com 1.10,2013-09-17 20:49:00,
2013-09-17 22:04:00,50.7,50.0,29.30,WNW,283,0.0,2.0,96,0.01,,,0.58,weatherlink.com 1.10,2013-09-17 21:04:00,
2013-09-17 22:19:00,50.8,50.0,29.30,WSW,256,0.0,1.0,96,0.02,,,0.59,weatherlink.com 1.10,2013-09-17 21:19:00,
2013-09-17 22:34:00,50.7,50.0,29.31,West,262,1.0,3.0,96,0.01,,,0.59,weatherlink.com 1.10,2013-09-17 21:34:00,
2013-09-17 22:49:00,50.8,50.0,29.31,WSW,238,0.0,3.0,96,0.01,,,0.59,weatherlink.com 1.10,2013-09-17 21:49:00,
2013-09-17 23:04:00,50.7,50.0,29.31,NNW,343,1.0,4.0,96,0.01,,,0.60,weatherlink.com 1.10,2013-09-17 22:04:00,
2013-09-17 23:19:00,50.0,49.0,29.32,NW,323,0.0,4.0,96,0.01,,,0.60,weatherlink.com 1.10,2013-09-17 22:19:00,
2013-09-17 23:34:00,49.9,49.0,29.32,West,264,0.0,2.0,96,0.01,,,0.60,weatherlink.com 1.10,2013-09-17 22:34:00,
2013-09-17 23:49:00,49.9,49.0,29.32,North,10,0.0,1.0,96,0.01,,,0.60,weatherlink.com 1.10,2013-09-17 22:49:00,